TimeEST,TemperatureF,Dew PointF,Humidity,Sea Level PressureIn,VisibilityMPH,Wind Direction,Wind SpeedMPH,Gust SpeedMPH,PrecipitationIn,Events,Conditions,WindDirDegrees,DateUTC
1:53 AM,73.0,54.0,51,30.16,10.0,ENE,6.9,-,N/A,,Mostly Cloudy,70,2012-12-04 06:53:00
2:53 AM,72.0,57.9,61,30.14,10.0,ENE,8.1,-,N/A,,Partly Cloudy,70,2012-12-04 07:53:00
3:53 AM,71.1,62.1,73,30.14,10.0,NNE,9.2,-,N/A,,Mostly Cloudy,30,2012-12-04 08:53:00
4:53 AM,71.1,63.0,75,30.14,10.0,NE,13.8,-,0.00,,Mostly Cloudy,50,2012-12-04 09:53:00
5:53 AM,71.1,62.1,73,30.15,10.0,NE,16.1,21.9,N/A,,Overcast,50,2012-12-04 10:53:00
6:53 AM,70.0,62.1,76,30.16,10.0,NE,15.0,-,N/A,,Mostly Cloudy,50,2012-12-04 11:53:00
7:53 AM,72.0,62.1,71,30.17,10.0,ENE,10.4,-,0.00,,Mostly Cloudy,60,2012-12-04 12:53:00
8:53 AM,73.0,63.0,71,30.18,10.0,NE,11.5,-,N/A,,Overcast,50,2012-12-04 13:53:00
9:53 AM,73.0,63.0,71,30.20,10.0,NE,9.2,-,N/A,,Mostly Cloudy,50,2012-12-04 14:53:00
10:53 AM,79.0,59.0,50,30.20,10.0,ENE,11.5,20.7,N/A,,Scattered Clouds,70,2012-12-04 15:53:00
11:53 AM,80.1,59.0,48,30.18,10.0,East,9.2,20.7,N/A,,Clear,80,2012-12-04 16:53:00
1:53 PM,77.0,61.0,58,30.13,10.0,NE,16.1,-,N/A,,Scattered Clouds,50,2012-12-04 18:53:00
2:53 PM,77.0,60.1,56,30.12,10.0,East,11.5,19.6,N/A,,Scattered Clouds,80,2012-12-04 19:53:00
3:53 PM,77.0,59.0,54,30.12,10.0,ENE,13.8,21.9,N/A,,Clear,60,2012-12-04 20:53:00
4:53 PM,75.0,62.1,64,30.13,10.0,ENE,11.5,-,N/A,,Clear,60,2012-12-04 21:53:00
5:53 PM,73.9,63.0,68,30.14,10.0,NE,15.0,-,N/A,,Clear,50,2012-12-04 22:53:00
6:53 PM,73.0,61.0,66,30.14,10.0,ENE,12.7,-,N/A,,Clear,60,2012-12-04 23:53:00
7:53 PM,73.0,62.1,68,30.15,10.0,NE,10.4,-,N/A,,Partly Cloudy,50,2012-12-05 00:53:00
8:53 PM,73.0,62.1,68,30.15,10.0,ENE,8.1,-,N/A,,Partly Cloudy,60,2012-12-05 01:53:00
9:53 PM,73.0,62.1,68,30.15,10.0,ENE,10.4,-,N/A,,Mostly Cloudy,60,2012-12-05 02:53:00
10:53 PM,73.0,63.0,71,30.14,10.0,NE,9.2,-,N/A,,Scattered Clouds,50,2012-12-05 03:53:00
11:53 PM,73.0,64.0,73,30.13,9.0,East,6.9,-,0.02,,Overcast,100,2012-12-05 04:53:00